STARLINK-2383, 47802

Orbit data source: Space-Track

STARLINK-2383, 47802 is a payload satellite owned by SpaceX/Seattle (US) in LEO that was launched on Thu, 11 Mar 2021 UTC via an FALCON 9 launch vehicle from the Air Force Eastern Test Range (AFETR). Payload-class satellites include a variety of spacecraft equipped with specific instruments for various scientific and technological missions. These include communications satellites like Starlink; space stations such as the ISS; scientific satellites like the Hubble; Earth observation satellites from companies like Planet Labs, Umbra, and HawkEye 360; GPS; miniature CubeSats for education and research; and military/defense satellites.

Loading next visibility...
Identifier
47802, 2021-018R
Orbit
LEO
Country
Flag of USUS
Related business
Manufacturer
SpaceX/Seattle
Mission
Operational Commercial Communications
Bus & Motor
STARLINK, Unknown motor
Mass
260 kg wet, ~248 kg dry
Launch date (UTC)
2021-03-11 (5 years ago)
Launch vehicle
FALCON 9
Launch site
Air Force Eastern Test Range (AFETR)
Object type
Payload
Rocket body
Debris
Shape & HBR
Box + 1 Pan, 10.1 m
Radar Cross Section
13.562 m², Large (>1 m²)

Expand to show TLE details & history
Last TLE update: 13 hours ago

TLE from 13 hours ago
0 STARLINK-2383
1 47802U 21018R   26119.97806238  .00004499  00000-0  16399-3 0  9992
2 47802  53.1626  17.1272 0001439  92.3084 267.8082 15.30190890284406
Epoch: 2026-04-29T23:28Z
TLE epoch observation values (Epoch: 2026-04-29T23:28:24.589Z)
Latitude
0.00001°
Longitude
167.09348°
Altitude
476.18 km
Speed
7.629 km/s
True Right ascension
01h 08m 30s
True Declination
0° 00' 00"
Sunlit
Object was in daylight at epoch
Visualization orbit readout
Latitude
Unknown
Longitude
Unknown
Altitude
Unknown
Speed
Unknown
Apparent Right ascension
Unknown
Apparent Declination
Unknown
Sunlit
N/A
Visualization observer readout
Local Sidereal Time
20:11:59
Azimuth
Unknown
Elevation
Unknown
Doppler factor
Unknown
Orbital elements
Apogee altitude
476.485 km
Perigee altitude
474.512 km
Semi-major axis
6,853.635 km
Eccentricity
0.00014
Inclination
53.1626°
RAAN
17.1272°
Arg. of periapsis
92.3084°
True anomaly
267.79172°
Mean anomaly
267.8082°
Eccentric anomaly
267.79996°
Mean motion
3.82527 °/min
Orbital period
94.11 mins
BSTAR
0.00016399
Loading maneuver chart data...
Computing Atmospheric mass density...
Loading historical data...
Loading historical data...
Loading historical data...
Loading historical data...
Loading historical data...
Loading historical data...
Loading historical data...

Documentation

Showing up to 5 results
|